|
Cosmos 2227 Rocket - Orbit
|
Charleston;
11:42:30
| Home | Info | Passes |
|
View from above orbital plane
|
View from above satellite
|
Ground track
|
The orbit data is extracted from the following two-line orbital elements,
1 22285U 92093B 13144.49899500 -.00000112 00000-0 -33402-4 0 419
2 22285 071.0234 086.5169 0006146 247.4962 112.5511 14.14856974 52523
| Epoch (UTC): | 24 May 2013 11:58:33 |
| Eccentricity: | 0.0006146 |
| inclination: | 71.0234° |
| perigee height: | 838 km |
| apogee height: | 847 km |
| right ascension of ascending node: | 86.5169° |
| argument of perigee: | 247.4962° |
| revolutions per day: | 14.14856974 |
| mean anomaly at epoch: | 112.5511° |
| orbit number at epoch: | 5252 |
The dashed part of the orbit path shows where the satellite is in the earth's shadow,
|
|